Ballina Observation History
Time Wind Speed Temp Pressure Rel. Hum Rain
24/09:00am N 9-13 kts 28.2°c 1011.5 hPa 78% 0.0mm
24/08:30am NNE 8-12 kts 27.4°c 1011.8 hPa 82% 0.0mm
24/08:00am NNE 8-14 kts 26.6°c 1011.6 hPa 83% 0.0mm
24/07:30am NNE 7-12 kts 26.1°c 1011.6 hPa 85% 0.0mm
24/07:00am NNE 8-10 kts 25.6°c 1011.1 hPa 86% 0.0mm
24/06:30am N 7-11 kts 25.2°c 1011.0 hPa 88% 0.0mm
24/06:00am N 8-13 kts 25.1°c 1010.1 hPa 87% 0.0mm
24/05:30am N 14-21 kts 25.5°c 1009.1 hPa 87% 0.0mm
24/05:00am N 13-22 kts 25.6°c 1008.8 hPa 86% 0.0mm
24/04:30am NNE 12-18 kts 25.6°c 1008.3 hPa 87% 0.0mm
24/04:00am NNE 12-17 kts 25.5°c 1008.7 hPa 87% 0.0mm
24/03:30am NNE 11-19 kts 25.6°c 1009.1 hPa 86% 0.0mm
24/03:00am NNE 11-16 kts 25.5°c 1009.4 hPa 87% 0.0mm
24/02:30am NNE 12-20 kts 25.6°c 1010.0 hPa 88% 0.0mm
24/02:00am NNE 12-17 kts 25.8°c 1010.4 hPa 87% 0.0mm
24/01:30am N 13-20 kts 25.9°c 1010.4 hPa 87% 0.0mm
24/01:00am NNE 13-20 kts 25.8°c 1010.7 hPa 86% 0.0mm
24/12:30am N 12-16 kts 25.9°c 1010.6 hPa 86% 0.0mm
24/12:00am N 15-21 kts 26.1°c 1010.1 hPa 85% 0.0mm
Time Wind Speed Temp Pressure Rel. Hum Rain
23/11:30pm N 16-26 kts 26.0°c 1009.9 hPa 85% 0.0mm
23/11:28pm N 15-26 kts 26.1°c 1009.9 hPa 85% 0.0mm
23/11:00pm NNE 15-22 kts 26.0°c 1010.1 hPa 86% 0.0mm
23/10:30pm N 15-23 kts 26.1°c 1010.7 hPa 87% 0.0mm
23/10:00pm N 15-20 kts 26.0°c 1010.9 hPa 89% 0.0mm
23/09:30pm NNE 16-23 kts 25.9°c 1010.4 hPa 88% 0.0mm
23/09:00pm N 17-28 kts 26.0°c 1010.0 hPa 88% 0.0mm
23/08:50pm N 16-27 kts 26.0°c 1009.8 hPa 87% 0.0mm
23/08:30pm NNE 16-25 kts 26.0°c 1009.7 hPa 86% 0.0mm
23/08:00pm NNE 15-25 kts 26.1°c 1009.7 hPa 86% 0.0mm
23/07:40pm NNE 15-25 kts 26.1°c 1009.5 hPa 85% 0.0mm
23/07:30pm NNE 17-24 kts 26.3°c 1009.4 hPa 85% 0.0mm
23/07:00pm NNE 16-28 kts 26.7°c 1009.0 hPa 84% 0.0mm
23/06:51pm NNE 17-28 kts 26.7°c 1008.7 hPa 84% 0.0mm
23/06:30pm NNE 17-25 kts 27.0°c 1008.7 hPa 82% 0.0mm
23/06:15pm NNE 16-29 kts 27.3°c 1008.5 hPa 81% 0.0mm
23/06:00pm NNE 18-26 kts 27.5°c 1008.3 hPa 80% 0.0mm
23/05:43pm NNE 16-31 kts 27.8°c 1008.1 hPa 77% 0.0mm
23/05:30pm NNE 17-25 kts 27.9°c 1008.2 hPa 77% 0.0mm
23/05:03pm NNE 17-30 kts 27.7°c 1008.2 hPa 78% 0.0mm
23/05:00pm NNE 16-25 kts 27.7°c 1008.2 hPa 78% 0.0mm
23/04:41pm NNE 17-27 kts 28.0°c 1008.0 hPa 77% 0.0mm
23/04:30pm NNE 18-27 kts 28.6°c 1008.0 hPa 75% 0.0mm
23/04:00pm NNE 19-29 kts 29.9°c 1008.0 hPa 73% 0.0mm
23/03:54pm NNE 17-29 kts 29.8°c 1008.1 hPa 71% 0.0mm
23/03:30pm NNE 18-26 kts 30.1°c 1008.5 hPa 70% 0.0mm
23/03:00pm NNE 20-33 kts 29.5°c 1008.9 hPa 71% 0.0mm
23/02:30pm NNE 16-28 kts 30.3°c 1009.4 hPa 70% 0.0mm
23/02:02pm NNE 17-27 kts 30.3°c 1009.8 hPa 73% 0.0mm
23/02:00pm NNE 17-24 kts 30.2°c 1009.8 hPa 72% 0.0mm
23/01:30pm NNE 13-21 kts 31.7°c 1010.2 hPa 75% 0.0mm
23/01:00pm NNE 16-22 kts 30.5°c 1010.6 hPa 74% 0.0mm
23/12:30pm NNE 14-21 kts 30.6°c 1011.1 hPa 75% 0.0mm
23/12:00pm NNE 15-21 kts 30.1°c 1011.4 hPa 73% 0.0mm
23/11:30am N 12-18 kts 29.7°c 1011.7 hPa 75% 0.0mm
23/11:00am NNE 13-19 kts 29.2°c 1012.0 hPa 79% 0.0mm
23/10:30am NNE 11-15 kts 27.9°c 1012.4 hPa 84% 0.0mm
23/10:00am NNE 13-17 kts 27.6°c 1012.4 hPa 84% 0.0mm
23/09:30am N 13-19 kts 27.4°c 1012.3 hPa 85% 0.0mm
23/09:00am N 10-17 kts 27.4°c 1012.5 hPa 84% 0.0mm
23/08:30am N 12-15 kts 26.7°c 1012.3 hPa 87% 0.0mm
23/08:00am N 12-18 kts 26.3°c 1012.0 hPa 90% 0.0mm
23/07:35am N 10-15 kts 25.9°c 1011.8 hPa 90% 0.0mm
23/07:30am N 10-15 kts 25.9°c 1011.7 hPa 90% 0.0mm
23/07:00am N 10-15 kts 25.7°c 1011.5 hPa 91% 0.0mm
23/06:30am N 11-14 kts 25.6°c 1011.0 hPa 92% 0.0mm
23/06:09am NNE 10-16 kts 25.6°c 1010.7 hPa 92% 0.0mm
23/06:00am NNE 11-16 kts 25.5°c 1010.6 hPa 92% 0.0mm
23/05:30am NNE 11-18 kts 25.4°c 1010.4 hPa 93% 0.0mm
23/05:00am NNE 13-18 kts 25.7°c 1010.4 hPa 92% 0.0mm
23/04:30am NNE 11-16 kts 25.5°c 1010.3 hPa 93% 0.0mm
23/04:00am NNE 10-16 kts 25.6°c 1010.2 hPa 92% 0.0mm
23/03:46am NNE 12-19 kts 25.6°c 1010.2 hPa 92% 0.0mm
23/03:30am NNE 11-16 kts 25.7°c 1010.2 hPa 91% 0.0mm
23/03:00am NNE 8-13 kts 25.9°c 1010.3 hPa 91% 0.0mm
23/02:30am NNE 10-14 kts 25.9°c 1010.4 hPa 91% 0.0mm
23/02:00am N 10-14 kts 25.9°c 1010.7 hPa 91% 0.0mm
23/01:56am N 10-15 kts 25.9°c 1010.7 hPa 91% 0.0mm
23/01:30am NNE 11-19 kts 25.9°c 1010.6 hPa 90% 0.0mm
23/01:23am NNE 12-20 kts 26.0°c 1010.7 hPa 90% 0.0mm
23/01:00am NNE 11-15 kts 26.1°c 1010.9 hPa 90% 0.0mm
23/12:30am NNE 11-15 kts 26.1°c 1011.1 hPa 90% 0.0mm
23/12:03am N 11-18 kts 26.3°c 1011.4 hPa 90% 0.0mm
23/12:00am N 12-17 kts 26.3°c 1011.3 hPa 90% 0.0mm
Time Wind Speed Temp Pressure Rel. Hum Rain
22/11:30pm N 14-19 kts 26.4°c 1011.3 hPa 89% 0.0mm
22/11:00pm N 13-20 kts 26.4°c 1011.4 hPa 89% 0.0mm
22/10:30pm NNE 14-23 kts 26.6°c 1011.0 hPa 88% 0.0mm
22/10:28pm N 15-23 kts 26.6°c 1010.9 hPa 88% 0.0mm
22/10:00pm N 16-23 kts 26.8°c 1011.1 hPa 89% 0.0mm
22/09:30pm NNE 15-24 kts 26.7°c 1010.4 hPa 90% 0.0mm
22/09:10pm N 18-26 kts 26.8°c 1010.1 hPa 90% 0.0mm
22/09:00pm NNE 16-28 kts 26.8°c 1009.5 hPa 90% 0.0mm
22/08:49pm NNE 17-28 kts 26.8°c 1009.3 hPa 89% 0.0mm
22/08:30pm NNE 15-23 kts 26.9°c 1009.5 hPa 89% 0.0mm
22/08:26pm N 15-25 kts 26.8°c 1009.5 hPa 89% 0.0mm
22/08:19pm N 16-25 kts 26.9°c 1009.5 hPa 88% 0.0mm
22/08:02pm N 16-26 kts 26.9°c 1009.5 hPa 89% 0.0mm
22/08:00pm N 16-26 kts 26.9°c 1009.5 hPa 89% 0.0mm
22/07:30pm NNE 17-25 kts 26.9°c 1008.9 hPa 88% 0.0mm
22/07:28pm N 17-25 kts 26.9°c 1008.9 hPa 89% 0.0mm
22/07:14pm NNE 17-29 kts 27.0°c 1008.8 hPa 88% 0.0mm
22/07:09pm NNE 16-29 kts 27.1°c 1008.6 hPa 88% 0.0mm
22/07:00pm NNE 17-25 kts 27.2°c 1008.5 hPa 87% 0.0mm
22/06:46pm NNE 16-26 kts 27.5°c 1007.9 hPa 85% 0.0mm
22/06:30pm NNE 15-22 kts 27.6°c 1007.7 hPa 85% 0.0mm
22/06:00pm NNE 16-31 kts 27.9°c 1007.6 hPa 80% 0.0mm
22/05:59pm NNE 15-31 kts 28.0°c 1007.7 hPa 80% 0.0mm
22/05:30pm NNE 13-21 kts 28.8°c 1007.9 hPa 78% 0.0mm
22/05:00pm NNE 13-22 kts 29.1°c 1007.9 hPa 74% 0.0mm
22/04:30pm NNE 12-19 kts 30.0°c 1008.0 hPa 74% 0.0mm
22/04:00pm NNE 14-20 kts 30.3°c 1008.4 hPa 67% 0.0mm
22/03:30pm N 13-18 kts 31.2°c 1009.0 hPa 66% 0.0mm
22/03:00pm NNE 11-16 kts 30.6°c 1009.5 hPa 66% 0.0mm
22/02:30pm NE 10-13 kts 31.0°c 1009.8 hPa 71% 0.0mm
22/02:00pm NE 11-13 kts 30.1°c 1009.8 hPa 67% 0.0mm
22/01:30pm NE 10-12 kts 30.4°c 1010.2 hPa 67% 0.0mm
22/01:00pm ENE 9-12 kts 31.1°c 1010.6 hPa 58% 0.0mm
22/12:30pm E 6-8 kts 31.2°c 1011.1 hPa 58% 0.0mm
22/12:00pm ESE 6-9 kts 29.9°c 1011.2 hPa 66% 0.0mm
22/11:30am ESE 6-9 kts 28.9°c 1011.5 hPa 69% 0.0mm
22/11:00am ESE 6-9 kts 28.5°c 1011.7 hPa 74% 0.0mm
22/10:30am E 8-10 kts 27.8°c 1011.8 hPa 74% 0.0mm
22/10:00am SE 6-8 kts 29.2°c 1011.8 hPa 73% 0.0mm
22/09:30am S 5-7 kts 28.6°c 1011.6 hPa 68% 0.0mm
22/09:00am SW 2-3 kts 27.0°c 1011.6 hPa 74% 0.0mm
22/08:30am W 4-5 kts 25.2°c 1011.7 hPa 85% 0.0mm
22/08:00am WSW 4-5 kts 24.0°c 1011.5 hPa 89% 0.0mm
22/07:30am SW 4-5 kts 23.3°c 1011.0 hPa 92% 0.0mm
22/07:00am SW 4-5 kts 22.7°c 1010.4 hPa 97% 0.0mm
22/06:30am CALM 0 kts 22.0°c 1009.7 hPa 97% 0.0mm
22/06:00am CALM 0-4 kts 21.3°c 1009.4 hPa 97% 0.0mm
22/05:30am CALM 0 kts 21.6°c 1008.9 hPa 96% 0.0mm
22/05:00am CALM 0 kts 22.8°c 1008.3 hPa 94% 0.0mm
22/04:30am CALM 0 kts 23.3°c 1008.1 hPa 92% 0.0mm
22/04:00am N 6-8 kts 24.2°c 1007.8 hPa 92% 0.0mm
22/03:30am N 4-6 kts 24.1°c 1007.7 hPa 89% 0.0mm
22/03:00am NNE 5-7 kts 24.4°c 1007.9 hPa 87% 0.0mm
22/02:30am NNW 7-9 kts 25.3°c 1007.8 hPa 85% 0.0mm
22/02:00am NNE 8-11 kts 25.5°c 1008.0 hPa 85% 0.0mm
22/01:30am N 9-15 kts 25.6°c 1008.1 hPa 85% 0.0mm
22/01:00am N 11-15 kts 25.5°c 1008.4 hPa 86% 0.0mm
22/12:30am N 11-16 kts 25.5°c 1008.5 hPa 85% 0.0mm
22/12:00am N 12-18 kts 25.8°c 1008.5 hPa 82% 0.0mm